NOK196 VTPM-VTUI

Flight info

Callsign NOK196
Flight time 0h 56m
Altitude 25000
Route KADAV1A KADAV W26 PSL W27 LOY W15 GULNO
Aircraft B738/M-SDE2E3FGHIRWXY/LB1

Departure

Time 2026-05-06 21:36
Airport Mae Sot Airport (VTPM)

Arrival

Time 2026-05-06 22:32
Airport Sakon Nakhon Airport (VTUI)
Time Latitude Longitude Altitude Speed Heading
2026-05-06 21:26 16.70202 98.54542 692 ft 0 kts 359°
2026-05-06 21:29 16.70201 98.54542 692 ft 6 kts 359°
2026-05-06 21:29 16.70176 98.54545 687 ft 8 kts 335°
2026-05-06 21:29 16.70157 98.54561 685 ft 8 kts 287°
2026-05-06 21:29 16.70155 98.54573 692 ft 25 kts 269°
2026-05-06 21:32 16.70151 98.54522 686 ft 9 kts 257°
2026-05-06 21:32 16.70028 98.54484 685 ft 11 kts 187°
2026-05-06 21:32 16.69982 98.54430 686 ft 11 kts 262°
2026-05-06 21:33 16.69981 98.54351 687 ft 11 kts 269°
2026-05-06 21:33 16.69979 98.54266 694 ft 13 kts 269°
2026-05-06 21:33 16.69976 98.54168 688 ft 14 kts 266°
2026-05-06 21:33 16.69955 98.54084 687 ft 11 kts 257°
2026-05-06 21:34 16.69957 98.54053 686 ft 2 kts 308°
2026-05-06 21:34 16.69968 98.54056 693 ft 2 kts 28°
2026-05-06 21:34 16.69978 98.54079 693 ft 4 kts 85°
2026-05-06 21:34 16.69978 98.54157 688 ft 30 kts 89°
2026-05-06 21:35 16.69983 98.54580 688 ft 86 kts 89°
2026-05-06 21:35 16.69998 98.55394 687 ft 136 kts 90°
2026-05-06 21:35 16.70009 98.56515 827 ft 164 kts 87°
2026-05-06 21:35 16.70062 98.57720 1278 ft 172 kts 87°
2026-05-06 21:36 16.70083 98.59004 1718 ft 183 kts 90°
2026-05-06 21:36 16.70088 98.60387 2130 ft 198 kts 89°
2026-05-06 21:36 16.70312 98.61849 2512 ft 213 kts 63°
2026-05-06 21:36 16.70969 98.63282 2985 ft 227 kts 67°
2026-05-06 21:37 16.71592 98.64862 3479 ft 244 kts 68°
2026-05-06 21:37 16.72238 98.66559 4073 ft 260 kts 68°
2026-05-06 21:37 16.72921 98.68365 4670 ft 274 kts 68°
2026-05-06 21:37 16.73632 98.70233 5428 ft 280 kts 68°
2026-05-06 21:38 16.74359 98.72132 6215 ft 284 kts 68°
2026-05-06 21:38 16.75100 98.74063 6972 ft 288 kts 68°
2026-05-06 21:38 16.75851 98.76020 7730 ft 292 kts 68°
2026-05-06 21:38 16.76584 98.78008 8452 ft 296 kts 73°
2026-05-06 21:39 16.77182 98.80070 9190 ft 299 kts 73°
2026-05-06 21:39 16.77772 98.82137 9889 ft 302 kts 73°
2026-05-06 21:39 16.78375 98.84268 10378 ft 315 kts 73°
2026-05-06 21:39 16.79010 98.86515 10709 ft 331 kts 73°
2026-05-06 21:40 16.79679 98.88870 11023 ft 347 kts 73°
2026-05-06 21:40 16.80379 98.91331 11413 ft 359 kts 73°
2026-05-06 21:40 16.81093 98.93843 12028 ft 363 kts 73°
2026-05-06 21:40 16.81813 98.96381 12684 ft 366 kts 73°
2026-05-06 21:41 16.82537 98.98940 13317 ft 369 kts 73°
2026-05-06 21:41 16.83268 99.01522 13920 ft 373 kts 73°
2026-05-06 21:41 16.84006 99.04129 14535 ft 376 kts 73°
2026-05-06 21:41 16.84750 99.06759 15131 ft 380 kts 73°
2026-05-06 21:42 16.85501 99.09415 15717 ft 383 kts 73°
2026-05-06 21:42 16.86258 99.12093 16281 ft 386 kts 73°
2026-05-06 21:42 16.87022 99.14798 16838 ft 390 kts 73°
2026-05-06 21:42 16.87790 99.17521 17374 ft 393 kts 73°
2026-05-06 21:43 16.88564 99.20266 17893 ft 396 kts 73°
2026-05-06 21:43 16.89327 99.23040 18370 ft 399 kts 76°
2026-05-06 21:43 16.89702 99.25918 18865 ft 402 kts 88°
2026-05-06 21:43 16.89532 99.28841 19344 ft 405 kts 96°
2026-05-06 21:44 16.89199 99.31774 19792 ft 408 kts 97°
2026-05-06 21:44 16.88825 99.34719 20231 ft 411 kts 97°
2026-05-06 21:44 16.88443 99.37650 20647 ft 414 kts 97°
2026-05-06 21:44 16.88065 99.40637 21064 ft 416 kts 97°
2026-05-06 21:45 16.87700 99.43645 21465 ft 419 kts 97°
2026-05-06 21:45 16.87338 99.46671 21850 ft 422 kts 97°
2026-05-06 21:45 16.86970 99.49719 22220 ft 424 kts 97°
2026-05-06 21:45 16.86593 99.52780 22579 ft 426 kts 97°
2026-05-06 21:46 16.86210 99.55861 22925 ft 429 kts 97°
2026-05-06 21:46 16.85826 99.58954 23254 ft 431 kts 97°
2026-05-06 21:46 16.85441 99.62067 23581 ft 433 kts 97°
2026-05-06 21:46 16.85056 99.65194 23892 ft 436 kts 97°
2026-05-06 21:47 16.84668 99.68344 24194 ft 438 kts 97°
2026-05-06 21:47 16.84277 99.71499 24487 ft 440 kts 97°
2026-05-06 21:47 16.83880 99.74691 24555 ft 447 kts 97°
2026-05-06 21:47 16.83477 99.77932 24646 ft 453 kts 97°
2026-05-06 21:48 16.83071 99.81201 24871 ft 455 kts 97°
2026-05-06 21:48 16.82662 99.84489 24892 ft 459 kts 97°
2026-05-06 21:48 16.82249 99.87801 24898 ft 461 kts 97°
2026-05-06 21:48 16.81833 99.91136 24900 ft 464 kts 97°
2026-05-06 21:49 16.81415 99.94473 24904 ft 463 kts 97°
2026-05-06 21:49 16.81008 99.97803 24898 ft 461 kts 95°
2026-05-06 21:49 16.81132 100.01121 24918 ft 457 kts 79°
2026-05-06 21:49 16.82003 100.04302 24924 ft 456 kts 71°
2026-05-06 21:50 16.83072 100.07418 24916 ft 456 kts 68°
2026-05-06 21:50 16.84268 100.10482 24910 ft 455 kts 66°
2026-05-06 21:50 16.85513 100.13526 24904 ft 455 kts 66°
2026-05-06 21:50 16.86708 100.16545 24903 ft 455 kts 68°
2026-05-06 21:51 16.87860 100.19621 24902 ft 455 kts 69°
2026-05-06 21:51 16.88987 100.22710 24902 ft 455 kts 69°
2026-05-06 21:51 16.90125 100.25795 24903 ft 455 kts 68°
2026-05-06 21:51 16.91286 100.28872 24902 ft 456 kts 68°
2026-05-06 21:52 16.92459 100.31943 24906 ft 456 kts 68°
2026-05-06 21:52 16.93631 100.35021 24901 ft 456 kts 68°
2026-05-06 21:52 16.94792 100.38103 24901 ft 456 kts 68°
2026-05-06 21:52 16.95947 100.41189 24902 ft 456 kts 68°
2026-05-06 21:53 16.97100 100.44271 24902 ft 456 kts 68°
2026-05-06 21:53 16.98259 100.47356 24904 ft 456 kts 68°
2026-05-06 21:53 16.99420 100.50439 24903 ft 456 kts 68°
2026-05-06 21:53 17.00580 100.53522 24904 ft 456 kts 68°
2026-05-06 21:54 17.01737 100.56604 24904 ft 456 kts 68°
2026-05-06 21:54 17.02894 100.59689 24904 ft 456 kts 68°
2026-05-06 21:54 17.04050 100.62778 24902 ft 456 kts 68°
2026-05-06 21:54 17.05208 100.65868 24903 ft 456 kts 68°
2026-05-06 21:55 17.06365 100.68958 24905 ft 457 kts 68°
2026-05-06 21:55 17.07522 100.72048 24904 ft 456 kts 68°
2026-05-06 21:55 17.08664 100.75098 24904 ft 457 kts 68°
2026-05-06 21:55 17.09819 100.78189 24905 ft 457 kts 68°
2026-05-06 21:56 17.10975 100.81282 24907 ft 456 kts 68°
2026-05-06 21:56 17.12129 100.84372 24901 ft 457 kts 68°
2026-05-06 21:56 17.13285 100.87469 24907 ft 456 kts 68°
2026-05-06 21:56 17.14438 100.90560 24912 ft 457 kts 68°
2026-05-06 21:57 17.15591 100.93651 24914 ft 457 kts 68°
2026-05-06 21:57 17.16747 100.96751 24914 ft 458 kts 68°
2026-05-06 21:57 17.17902 100.99852 24915 ft 457 kts 68°
2026-05-06 21:57 17.19055 101.02950 24916 ft 457 kts 68°
2026-05-06 21:58 17.20209 101.06049 24915 ft 457 kts 68°
2026-05-06 21:58 17.21361 101.09148 24915 ft 457 kts 68°
2026-05-06 21:58 17.22513 101.12248 24917 ft 457 kts 68°
2026-05-06 21:58 17.23667 101.15352 24922 ft 457 kts 68°
2026-05-06 21:59 17.24817 101.18449 24927 ft 457 kts 68°
2026-05-06 21:59 17.25968 101.21550 24929 ft 457 kts 68°
2026-05-06 21:59 17.27117 101.24650 24933 ft 457 kts 68°
2026-05-06 21:59 17.28268 101.27753 24934 ft 457 kts 68°
2026-05-06 22:00 17.29416 101.30853 24934 ft 457 kts 68°
2026-05-06 22:00 17.30552 101.33919 24936 ft 457 kts 68°
2026-05-06 22:00 17.31699 101.37019 24942 ft 457 kts 68°
2026-05-06 22:00 17.32848 101.40125 24947 ft 457 kts 68°
2026-05-06 22:01 17.33996 101.43229 24943 ft 457 kts 68°
2026-05-06 22:01 17.35142 101.46330 24946 ft 457 kts 68°
2026-05-06 22:01 17.36290 101.49438 24950 ft 458 kts 68°
2026-05-06 22:01 17.37437 101.52546 24949 ft 458 kts 68°
2026-05-06 22:02 17.38584 101.55655 24952 ft 458 kts 68°
2026-05-06 22:02 17.39731 101.58765 24955 ft 458 kts 68°
2026-05-06 22:02 17.40877 101.61876 24958 ft 458 kts 68°
2026-05-06 22:02 17.42022 101.64986 24952 ft 458 kts 68°
2026-05-06 22:03 17.43168 101.68100 24953 ft 458 kts 68°
2026-05-06 22:03 17.44107 101.71288 24945 ft 459 kts 77°
2026-05-06 22:03 17.44504 101.74601 24941 ft 460 kts 88°
2026-05-06 22:03 17.44417 101.77954 24951 ft 460 kts 92°
2026-05-06 22:04 17.44240 101.81301 24954 ft 460 kts 93°
2026-05-06 22:04 17.44028 101.84647 24954 ft 460 kts 93°
2026-05-06 22:04 17.43812 101.87990 24954 ft 460 kts 93°
2026-05-06 22:04 17.43613 101.91291 24955 ft 460 kts 92°
2026-05-06 22:05 17.43426 101.94637 24954 ft 460 kts 92°
2026-05-06 22:05 17.43242 101.97985 24953 ft 460 kts 92°
2026-05-06 22:05 17.43053 102.01332 24950 ft 460 kts 92°
2026-05-06 22:05 17.42855 102.04679 24949 ft 461 kts 93°
2026-05-06 22:06 17.42654 102.08033 24945 ft 461 kts 93°
2026-05-06 22:06 17.42454 102.11388 24945 ft 461 kts 93°
2026-05-06 22:06 17.42258 102.14741 24944 ft 461 kts 92°
2026-05-06 22:06 17.42061 102.18091 24938 ft 461 kts 92°
2026-05-06 22:07 17.41863 102.21448 24937 ft 461 kts 93°
2026-05-06 22:07 17.41664 102.24797 24933 ft 461 kts 93°
2026-05-06 22:07 17.41464 102.28147 24931 ft 461 kts 93°
2026-05-06 22:07 17.41266 102.31496 24931 ft 461 kts 93°
2026-05-06 22:08 17.41068 102.34847 24925 ft 461 kts 93°
2026-05-06 22:08 17.40870 102.38195 24922 ft 460 kts 93°
2026-05-06 22:08 17.40670 102.41539 24922 ft 460 kts 93°
2026-05-06 22:08 17.40473 102.44839 24921 ft 460 kts 93°
2026-05-06 22:09 17.40271 102.48183 24921 ft 460 kts 93°
2026-05-06 22:09 17.40070 102.51529 24920 ft 460 kts 93°
2026-05-06 22:09 17.39868 102.54873 24920 ft 460 kts 93°
2026-05-06 22:09 17.39666 102.58220 24920 ft 460 kts 93°
2026-05-06 22:10 17.39463 102.61565 24920 ft 460 kts 93°
2026-05-06 22:10 17.39259 102.64909 24920 ft 461 kts 93°
2026-05-06 22:10 17.39055 102.68258 24921 ft 461 kts 93°
2026-05-06 22:10 17.38850 102.71602 24921 ft 461 kts 93°
2026-05-06 22:11 17.38644 102.74948 24920 ft 461 kts 93°
2026-05-06 22:11 17.38430 102.78292 24924 ft 461 kts 94°
2026-05-06 22:11 17.38108 102.81629 24924 ft 461 kts 96°
2026-05-06 22:11 17.37655 102.84950 24925 ft 461 kts 98°
2026-05-06 22:12 17.37327 102.87143 24924 ft 461 kts 98°
2026-05-06 22:12 17.36856 102.90464 24923 ft 461 kts 97°
2026-05-06 22:12 17.36444 102.93790 24923 ft 461 kts 96°
2026-05-06 22:12 17.36068 102.97124 24921 ft 461 kts 96°
2026-05-06 22:13 17.35687 103.00457 24920 ft 461 kts 96°
2026-05-06 22:13 17.35282 103.03779 24919 ft 461 kts 97°
2026-05-06 22:13 17.34857 103.07107 24920 ft 461 kts 97°
2026-05-06 22:13 17.34432 103.10432 24920 ft 461 kts 97°
2026-05-06 22:14 17.34016 103.13764 24921 ft 461 kts 97°
2026-05-06 22:14 17.33609 103.17090 24920 ft 461 kts 97°
2026-05-06 22:14 17.33201 103.20419 24920 ft 461 kts 97°
2026-05-06 22:14 17.32789 103.23745 24919 ft 461 kts 97°
2026-05-06 22:15 17.32372 103.27076 24919 ft 461 kts 97°
2026-05-06 22:15 17.31954 103.30401 24920 ft 461 kts 97°
2026-05-06 22:15 17.31538 103.33730 24920 ft 461 kts 97°
2026-05-06 22:15 17.31125 103.37053 24921 ft 461 kts 97°
2026-05-06 22:16 17.30716 103.40337 24877 ft 461 kts 97°
2026-05-06 22:16 17.30301 103.43668 24086 ft 460 kts 97°
2026-05-06 22:16 17.29887 103.46965 23380 ft 453 kts 97°
2026-05-06 22:16 17.29478 103.50212 22693 ft 447 kts 97°
2026-05-06 22:17 17.29076 103.53412 22015 ft 440 kts 97°
2026-05-06 22:17 17.28679 103.56565 21349 ft 434 kts 97°
2026-05-06 22:17 17.28289 103.59668 20673 ft 427 kts 97°
2026-05-06 22:17 17.27903 103.62729 20004 ft 420 kts 97°
2026-05-06 22:18 17.27523 103.65738 19343 ft 414 kts 97°
2026-05-06 22:18 17.27148 103.68705 18688 ft 408 kts 97°
2026-05-06 22:18 17.26778 103.71624 18025 ft 402 kts 97°
2026-05-06 22:18 17.26412 103.74509 17381 ft 396 kts 97°
2026-05-06 22:19 17.26052 103.77347 16734 ft 391 kts 97°
2026-05-06 22:19 17.25696 103.80150 16091 ft 386 kts 97°
2026-05-06 22:19 17.25631 103.82921 15483 ft 378 kts 82°
2026-05-06 22:19 17.26373 103.85523 14843 ft 372 kts 62°
2026-05-06 22:20 17.27903 103.87672 14099 ft 368 kts 41°
2026-05-06 22:20 17.30036 103.89094 13413 ft 363 kts 24°
2026-05-06 22:20 17.32282 103.90195 12709 ft 359 kts 25°
2026-05-06 22:20 17.34484 103.91397 12034 ft 355 kts 28°
2026-05-06 22:21 17.36548 103.92782 11382 ft 350 kts 34°
2026-05-06 22:21 17.38423 103.94381 10745 ft 345 kts 41°
2026-05-06 22:21 17.40069 103.96151 10472 ft 330 kts 47°
2026-05-06 22:21 17.41461 103.97976 10351 ft 311 kts 53°
2026-05-06 22:22 17.42627 103.99822 10221 ft 299 kts 58°
2026-05-06 22:22 17.43643 104.01725 10089 ft 298 kts 62°
2026-05-06 22:22 17.44513 104.03688 9910 ft 298 kts 66°
2026-05-06 22:22 17.45240 104.05739 9452 ft 302 kts 72°
2026-05-06 22:23 17.45794 104.07852 9015 ft 300 kts 77°
2026-05-06 22:23 17.46169 104.09965 8568 ft 297 kts 82°
2026-05-06 22:23 17.46378 104.12133 8139 ft 295 kts 87°
2026-05-06 22:23 17.46418 104.14235 7723 ft 293 kts 92°
2026-05-06 22:24 17.46291 104.16392 7302 ft 290 kts 96°
2026-05-06 22:24 17.46007 104.18472 6879 ft 287 kts 101°
2026-05-06 22:24 17.45567 104.20507 6453 ft 285 kts 106°
2026-05-06 22:24 17.44981 104.22479 6043 ft 283 kts 110°
2026-05-06 22:25 17.44256 104.24377 5640 ft 279 kts 115°
2026-05-06 22:25 17.43402 104.26193 5239 ft 276 kts 119°
2026-05-06 22:25 17.42436 104.27896 5049 ft 266 kts 124°
2026-05-06 22:25 17.41405 104.29447 4944 ft 253 kts 128°
2026-05-06 22:26 17.40317 104.30828 4827 ft 239 kts 137°
2026-05-06 22:26 17.38937 104.31524 4679 ft 217 kts 176°
2026-05-06 22:26 17.37573 104.31117 4520 ft 203 kts 220°
2026-05-06 22:26 17.36716 104.30006 4475 ft 191 kts 232°
2026-05-06 22:27 17.35858 104.28952 4333 ft 190 kts 226°
2026-05-06 22:27 17.34960 104.27972 4134 ft 185 kts 225°
2026-05-06 22:27 17.34059 104.27022 3918 ft 182 kts 224°
2026-05-06 22:27 17.33169 104.26090 3725 ft 180 kts 224°
2026-05-06 22:28 17.32283 104.25166 3540 ft 180 kts 224°
2026-05-06 22:28 17.31396 104.24241 3354 ft 180 kts 224°
2026-05-06 22:28 17.30510 104.23317 3148 ft 180 kts 224°
2026-05-06 22:28 17.29622 104.22392 2931 ft 180 kts 224°
2026-05-06 22:29 17.28737 104.21470 2737 ft 179 kts 224°
2026-05-06 22:29 17.27851 104.20547 2516 ft 179 kts 224°
2026-05-06 22:29 17.26984 104.19644 2366 ft 173 kts 223°
2026-05-06 22:29 17.26150 104.18775 2133 ft 166 kts 223°
2026-05-06 22:30 17.25348 104.17940 1942 ft 159 kts 223°
2026-05-06 22:30 17.24562 104.17123 1719 ft 159 kts 223°
2026-05-06 22:30 17.23787 104.16315 1511 ft 156 kts 223°
2026-05-06 22:30 17.23016 104.15513 1296 ft 156 kts 223°
2026-05-06 22:31 17.22253 104.14718 1091 ft 154 kts 223°
2026-05-06 22:31 17.21504 104.13937 893 ft 154 kts 223°
2026-05-06 22:31 17.20746 104.13148 681 ft 154 kts 224°
2026-05-06 22:31 17.20020 104.12390 532 ft 135 kts 225°
2026-05-06 22:32 17.19521 104.11872 534 ft 68 kts 225°
2026-05-06 22:32 17.19315 104.11658 533 ft 20 kts 226°
2026-05-06 22:32 17.19219 104.11558 532 ft 19 kts 223°
2026-05-06 22:32 17.19156 104.11485 533 ft 9 kts 252°
2026-05-06 22:33 17.19179 104.11428 533 ft 9 kts 315°
2026-05-06 22:33 17.19222 104.11382 533 ft 9 kts 314°
2026-05-06 22:33 17.19282 104.11380 533 ft 10 kts 41°
2026-05-06 22:33 17.19332 104.11437 533 ft 11 kts 48°
2026-05-06 22:34 17.19393 104.11494 533 ft 12 kts 47°
2026-05-06 22:34 17.19454 104.11562 533 ft 13 kts 47°